Year,Month,Day,Hour,Minute,Value (Times are PST for temperature in C)
2009,06,02,00,00,15.90
2009,06,02,00,01,15.90
2009,06,02,00,02,15.90
2009,06,02,00,03,15.90
2009,06,02,00,04,15.80
2009,06,02,00,05,15.80
2009,06,02,00,06,15.80
2009,06,02,00,07,15.80
2009,06,02,00,08,15.80
2009,06,02,00,09,15.70
2009,06,02,00,10,15.70
2009,06,02,00,11,15.70
2009,06,02,00,12,15.70
2009,06,02,00,13,15.70
2009,06,02,00,18,15.60
2009,06,02,00,19,15.60
2009,06,02,00,20,15.60
2009,06,02,00,21,15.60
2009,06,02,00,22,15.50
2009,06,02,00,23,15.50
2009,06,02,00,24,15.50
2009,06,02,00,25,15.40
2009,06,02,00,26,15.40
2009,06,02,00,27,15.40
2009,06,02,00,28,15.40
2009,06,02,00,29,15.40
2009,06,02,00,30,15.30
2009,06,02,00,31,15.30
2009,06,02,00,32,15.30
2009,06,02,00,33,15.30
2009,06,02,00,34,15.30
2009,06,02,00,35,15.30
2009,06,02,00,36,15.30
2009,06,02,00,37,15.30
2009,06,02,00,38,15.30
2009,06,02,00,39,15.30
2009,06,02,00,40,15.30
2009,06,02,00,41,15.20
2009,06,02,00,42,15.20
2009,06,02,00,43,15.20
2009,06,02,00,44,15.20
2009,06,02,00,45,15.20
2009,06,02,00,46,15.20
2009,06,02,00,47,15.20
2009,06,02,00,48,15.10
2009,06,02,00,49,15.10
2009,06,02,00,50,15.10
2009,06,02,00,51,15.00
2009,06,02,00,52,15.00
2009,06,02,00,53,15.00
2009,06,02,00,54,15.00
2009,06,02,00,55,15.00
2009,06,02,00,56,15.00
2009,06,02,00,57,15.00
2009,06,02,00,58,15.00
2009,06,02,00,59,15.00
2009,06,02,01,00,15.00
2009,06,02,01,01,15.00
2009,06,02,01,02,15.00
2009,06,02,01,03,14.90
2009,06,02,01,04,14.90
2009,06,02,01,05,14.80
2009,06,02,01,06,14.80
2009,06,02,01,07,14.80
2009,06,02,01,08,14.80
2009,06,02,01,09,14.80
2009,06,02,01,10,14.70
2009,06,02,01,11,14.70
2009,06,02,01,12,14.70
2009,06,02,01,13,14.70
2009,06,02,01,14,14.60
2009,06,02,01,15,14.60
2009,06,02,01,16,14.60
2009,06,02,01,17,14.60
2009,06,02,01,18,14.60
2009,06,02,01,19,14.60
2009,06,02,01,20,14.50
2009,06,02,01,21,14.50
2009,06,02,01,22,14.50
2009,06,02,01,23,14.50
2009,06,02,01,24,14.40
2009,06,02,01,25,14.40
2009,06,02,01,26,14.40
2009,06,02,01,27,14.40
2009,06,02,01,28,14.30
2009,06,02,01,29,14.30
2009,06,02,01,30,14.30
2009,06,02,01,31,14.30
2009,06,02,01,32,14.20
2009,06,02,01,33,14.20
2009,06,02,01,34,14.20
2009,06,02,01,35,14.20
2009,06,02,01,36,14.20
2009,06,02,01,37,14.10
2009,06,02,01,38,14.10
2009,06,02,01,39,14.10
2009,06,02,01,40,14.10
2009,06,02,01,41,14.00
2009,06,02,01,42,14.00
2009,06,02,01,43,13.90
2009,06,02,01,44,13.90
2009,06,02,01,45,13.90
2009,06,02,01,46,13.90
2009,06,02,01,47,13.80
2009,06,02,01,48,13.80
2009,06,02,01,49,13.80
2009,06,02,01,50,13.80
2009,06,02,01,51,13.80
2009,06,02,01,52,13.80
2009,06,02,01,53,13.70
2009,06,02,01,54,13.70
2009,06,02,01,55,13.70
2009,06,02,01,56,13.70
2009,06,02,01,57,13.60
2009,06,02,01,58,13.60
2009,06,02,01,59,13.60
2009,06,02,02,00,13.60
2009,06,02,02,01,13.50
2009,06,02,02,02,13.50
2009,06,02,02,03,13.40
2009,06,02,02,04,13.40
2009,06,02,02,05,13.40
2009,06,02,02,06,13.40
2009,06,02,02,07,13.40
2009,06,02,02,08,13.40
2009,06,02,02,09,13.30
2009,06,02,02,10,13.30
2009,06,02,02,11,13.30
2009,06,02,02,12,13.30
2009,06,02,02,13,13.30
2009,06,02,02,14,13.30
2009,06,02,02,15,13.30
2009,06,02,02,16,13.30
2009,06,02,02,17,13.30
2009,06,02,02,18,13.30
2009,06,02,02,19,13.30
2009,06,02,02,20,13.20
2009,06,02,02,21,13.20
2009,06,02,02,22,13.20
2009,06,02,02,23,13.20
2009,06,02,02,24,13.20
2009,06,02,02,25,13.20
2009,06,02,02,26,13.10
2009,06,02,02,27,13.10
2009,06,02,02,28,13.10
2009,06,02,02,29,13.10
2009,06,02,02,30,13.10
2009,06,02,02,31,13.10
2009,06,02,02,32,13.10
2009,06,02,02,33,13.10
2009,06,02,02,34,13.10
2009,06,02,02,35,13.10
2009,06,02,02,36,13.10
2009,06,02,02,37,13.10
2009,06,02,02,38,13.10
2009,06,02,02,39,13.10
2009,06,02,02,40,13.10
2009,06,02,02,41,13.10
2009,06,02,02,42,13.10
2009,06,02,02,43,13.10
2009,06,02,02,44,13.00
2009,06,02,02,45,13.00
2009,06,02,02,46,12.90
2009,06,02,02,47,12.90
2009,06,02,02,48,12.90
2009,06,02,02,49,12.90
2009,06,02,02,50,12.90
2009,06,02,02,51,12.80
2009,06,02,02,52,12.80
2009,06,02,02,53,12.80
2009,06,02,02,54,12.80
2009,06,02,02,55,12.80
2009,06,02,02,56,12.80
2009,06,02,02,57,12.80
2009,06,02,02,58,12.80
2009,06,02,02,59,12.80
2009,06,02,03,00,12.70
2009,06,02,03,01,12.70
2009,06,02,03,02,12.70
2009,06,02,03,03,12.70
2009,06,02,03,04,12.70
2009,06,02,03,05,12.60
2009,06,02,03,06,12.60
2009,06,02,03,07,12.60
2009,06,02,03,08,12.60
2009,06,02,03,09,12.60
2009,06,02,03,10,12.60
2009,06,02,03,11,12.60
2009,06,02,03,12,12.60
2009,06,02,03,13,12.60
2009,06,02,03,14,12.60
2009,06,02,03,15,12.60
2009,06,02,03,16,12.60
2009,06,02,03,17,12.60
2009,06,02,03,18,12.60
2009,06,02,03,19,12.60
2009,06,02,03,20,12.50
2009,06,02,03,21,12.50
2009,06,02,03,22,12.50
2009,06,02,03,23,12.50
2009,06,02,03,24,12.50
2009,06,02,03,25,12.40
2009,06,02,03,26,12.40
2009,06,02,03,27,12.40
2009,06,02,03,28,12.40
2009,06,02,03,29,12.40
2009,06,02,03,30,12.40
2009,06,02,03,31,12.40
2009,06,02,03,32,12.40
2009,06,02,03,33,12.40
2009,06,02,03,34,12.40
2009,06,02,03,35,12.30
2009,06,02,03,36,12.40
2009,06,02,03,37,12.30
2009,06,02,03,38,12.40
2009,06,02,03,39,12.40
2009,06,02,03,40,12.40
2009,06,02,03,41,12.40
2009,06,02,03,42,12.40
2009,06,02,03,43,12.40
2009,06,02,03,44,12.40
2009,06,02,03,45,12.40
2009,06,02,03,46,12.30
2009,06,02,03,47,12.30
2009,06,02,03,48,12.30
2009,06,02,03,49,12.30
2009,06,02,03,50,12.30
2009,06,02,03,51,12.30
2009,06,02,03,52,12.30
2009,06,02,03,53,12.30
2009,06,02,03,54,12.30
2009,06,02,03,55,12.30
2009,06,02,03,56,12.30
2009,06,02,03,57,12.30
2009,06,02,03,58,12.20
2009,06,02,03,59,12.20
2009,06,02,04,00,12.20
2009,06,02,04,01,12.20
2009,06,02,04,02,12.20
2009,06,02,04,03,12.20
2009,06,02,04,04,12.20
2009,06,02,04,05,12.20
2009,06,02,04,06,12.20
2009,06,02,04,07,12.20
2009,06,02,04,08,12.20
2009,06,02,04,09,12.20
2009,06,02,04,10,12.20
2009,06,02,04,11,12.20
2009,06,02,04,12,12.20
2009,06,02,04,13,12.20
2009,06,02,04,14,12.20
2009,06,02,04,15,12.30
2009,06,02,04,16,12.30
2009,06,02,04,17,12.30
2009,06,02,04,18,12.30
2009,06,02,04,19,12.30
2009,06,02,04,20,12.30
2009,06,02,04,21,12.30
2009,06,02,04,22,12.20
2009,06,02,04,23,12.20
2009,06,02,04,24,12.20
2009,06,02,04,25,12.20
2009,06,02,04,26,12.20
2009,06,02,04,27,12.20
2009,06,02,04,28,12.20
2009,06,02,04,29,12.20
2009,06,02,04,30,12.20
2009,06,02,04,31,12.20
2009,06,02,04,32,12.20
2009,06,02,04,33,12.20
2009,06,02,04,34,12.20
2009,06,02,04,35,12.20
2009,06,02,04,36,12.20
2009,06,02,04,37,12.20
2009,06,02,04,38,12.20
2009,06,02,04,39,12.20
2009,06,02,04,40,12.20
2009,06,02,04,41,12.20
2009,06,02,04,42,12.20
2009,06,02,04,43,12.20
2009,06,02,04,44,12.30
2009,06,02,04,45,12.30
2009,06,02,04,46,12.30
2009,06,02,04,47,12.30
2009,06,02,04,48,12.30
2009,06,02,04,49,12.30
2009,06,02,04,50,12.30
2009,06,02,04,51,12.30
2009,06,02,04,52,12.30
2009,06,02,04,53,12.30
2009,06,02,04,54,12.30
2009,06,02,04,55,12.30
2009,06,02,04,56,12.30
2009,06,02,04,57,12.30
2009,06,02,04,58,12.30
2009,06,02,04,59,12.30
2009,06,02,05,00,12.30
2009,06,02,05,01,12.30
2009,06,02,05,02,12.30
2009,06,02,05,03,12.30
2009,06,02,05,04,12.30
2009,06,02,05,05,12.30
2009,06,02,05,06,12.30
2009,06,02,05,07,12.30
2009,06,02,05,08,12.30
2009,06,02,05,09,12.30
2009,06,02,05,10,12.20
2009,06,02,05,11,12.20
2009,06,02,05,12,12.20
2009,06,02,05,13,12.20
2009,06,02,05,14,12.20
2009,06,02,05,15,12.20
2009,06,02,05,16,12.20
2009,06,02,05,17,12.20
2009,06,02,05,18,12.20
2009,06,02,05,19,12.20
2009,06,02,05,20,12.20
2009,06,02,05,21,12.20
2009,06,02,05,22,12.20
2009,06,02,05,23,12.30
2009,06,02,05,24,12.30
2009,06,02,05,25,12.30
2009,06,02,05,26,12.30
2009,06,02,05,27,12.30
2009,06,02,05,28,12.30
2009,06,02,05,29,12.30
2009,06,02,05,30,12.30
2009,06,02,05,31,12.30
2009,06,02,05,32,12.30
2009,06,02,05,33,12.30
2009,06,02,05,34,12.30
2009,06,02,05,35,12.30
2009,06,02,05,36,12.30
2009,06,02,05,37,12.30
2009,06,02,05,38,12.40
2009,06,02,05,39,12.40
2009,06,02,05,40,12.40
2009,06,02,05,41,12.40
2009,06,02,05,42,12.40
2009,06,02,05,43,12.40
2009,06,02,05,44,12.40
2009,06,02,05,45,12.40
2009,06,02,05,46,12.40
2009,06,02,05,47,12.50
2009,06,02,05,48,12.50
2009,06,02,05,49,12.50
2009,06,02,05,50,12.50
2009,06,02,05,51,12.50
2009,06,02,05,52,12.50
2009,06,02,05,53,12.50
2009,06,02,05,54,12.50
2009,06,02,05,55,12.50
2009,06,02,05,56,12.50
2009,06,02,05,57,12.50
2009,06,02,05,58,12.50
2009,06,02,05,59,12.40
2009,06,02,06,00,12.40
2009,06,02,06,01,12.50
2009,06,02,06,02,12.40
2009,06,02,06,03,12.40
2009,06,02,06,04,12.40
2009,06,02,06,05,12.40
2009,06,02,06,06,12.40
2009,06,02,06,07,12.50
2009,06,02,06,08,12.50
2009,06,02,06,09,12.50
2009,06,02,06,10,12.60
2009,06,02,06,11,12.60
2009,06,02,06,12,12.60
2009,06,02,06,13,12.70
2009,06,02,06,14,12.70
2009,06,02,06,15,12.70
2009,06,02,06,16,12.80
2009,06,02,06,17,12.80
2009,06,02,06,18,12.80
2009,06,02,06,19,12.90
2009,06,02,06,20,12.90
2009,06,02,06,21,12.90
2009,06,02,06,22,13.00
2009,06,02,06,23,13.00
2009,06,02,06,24,13.10
2009,06,02,06,25,13.10
2009,06,02,06,26,13.10
2009,06,02,06,27,13.20
2009,06,02,06,28,13.30
2009,06,02,06,29,13.30
2009,06,02,06,30,13.30
2009,06,02,06,31,13.40
2009,06,02,06,32,13.50
2009,06,02,06,33,13.50
2009,06,02,06,34,13.60
2009,06,02,06,35,13.70
2009,06,02,06,36,13.70
2009,06,02,06,37,13.80
2009,06,02,06,38,13.80
2009,06,02,06,39,13.90
2009,06,02,06,40,13.90
2009,06,02,06,41,14.00
2009,06,02,06,42,14.00
2009,06,02,06,43,14.10
2009,06,02,06,44,14.10
2009,06,02,06,45,14.20
2009,06,02,06,46,14.20
2009,06,02,06,47,14.20
2009,06,02,06,48,14.20
2009,06,02,06,49,14.30
2009,06,02,06,50,14.30
2009,06,02,06,51,14.30
2009,06,02,06,52,14.30
2009,06,02,06,53,14.30
2009,06,02,06,54,14.30
2009,06,02,06,55,14.30
2009,06,02,06,56,14.30
2009,06,02,06,57,14.30
2009,06,02,06,58,14.30
2009,06,02,06,59,14.30
2009,06,02,07,00,14.30
2009,06,02,07,01,14.40
2009,06,02,07,02,14.40
2009,06,02,07,03,14.40
2009,06,02,07,04,14.40
2009,06,02,07,05,14.40
2009,06,02,07,06,14.50
2009,06,02,07,07,14.50
2009,06,02,07,08,14.60
2009,06,02,07,09,14.60
2009,06,02,07,10,14.60
2009,06,02,07,11,14.60
2009,06,02,07,12,14.70
2009,06,02,07,13,14.70
2009,06,02,07,14,14.80
2009,06,02,07,15,14.80
2009,06,02,07,16,14.90
2009,06,02,07,17,15.00
2009,06,02,07,18,15.00
2009,06,02,07,19,15.00
2009,06,02,07,20,15.00
2009,06,02,07,21,15.00
2009,06,02,07,22,15.10
2009,06,02,07,23,15.10
2009,06,02,07,24,15.20
2009,06,02,07,25,15.30
2009,06,02,07,26,15.40
2009,06,02,07,27,15.50
2009,06,02,07,28,15.60
2009,06,02,07,29,15.80
2009,06,02,07,30,15.90
2009,06,02,07,31,16.00
2009,06,02,07,32,16.10
2009,06,02,07,33,16.20
2009,06,02,07,34,16.30
2009,06,02,07,35,16.40
2009,06,02,07,36,16.60
2009,06,02,07,37,16.70
2009,06,02,07,38,16.80
2009,06,02,07,39,16.80
2009,06,02,07,40,16.90
2009,06,02,07,41,17.00
2009,06,02,07,42,17.10
2009,06,02,07,43,17.20
2009,06,02,07,44,17.30
2009,06,02,07,45,17.40
2009,06,02,07,46,17.40
2009,06,02,07,47,17.50
2009,06,02,07,48,17.50
2009,06,02,07,49,17.60
2009,06,02,07,50,17.60
2009,06,02,07,51,17.70
2009,06,02,07,52,17.80
2009,06,02,07,53,17.80
2009,06,02,07,54,17.90
2009,06,02,07,55,18.00
2009,06,02,07,56,18.00
2009,06,02,07,57,18.10
2009,06,02,07,58,18.10
2009,06,02,07,59,18.20
2009,06,02,08,00,18.20
2009,06,02,08,01,18.30
2009,06,02,08,02,18.40
2009,06,02,08,03,18.40
2009,06,02,08,04,18.50
2009,06,02,08,05,18.60
2009,06,02,08,06,18.60
2009,06,02,08,07,18.60
2009,06,02,08,08,18.70
2009,06,02,08,09,18.80
2009,06,02,08,10,18.80
2009,06,02,08,11,18.90
2009,06,02,08,12,19.00
2009,06,02,08,13,19.00
2009,06,02,08,14,19.10
2009,06,02,08,15,19.20
2009,06,02,08,16,19.20
2009,06,02,08,17,19.30
2009,06,02,08,18,19.40
2009,06,02,08,19,19.50
2009,06,02,08,20,19.60
2009,06,02,08,21,19.60
2009,06,02,08,22,19.70
2009,06,02,08,23,19.70
2009,06,02,08,24,19.70
2009,06,02,08,25,19.80
2009,06,02,08,26,19.90
2009,06,02,08,27,19.90
2009,06,02,08,28,20.00
2009,06,02,08,29,20.00
2009,06,02,08,30,20.00
2009,06,02,08,31,20.10
2009,06,02,08,32,20.10
2009,06,02,08,33,20.10
2009,06,02,08,34,20.20
2009,06,02,08,35,20.20
2009,06,02,08,36,20.30
2009,06,02,08,37,20.30
2009,06,02,08,38,20.30
2009,06,02,08,39,20.40
2009,06,02,08,40,20.40
2009,06,02,08,41,20.50
2009,06,02,08,42,20.50
2009,06,02,08,43,20.60
2009,06,02,08,44,20.60
2009,06,02,08,45,20.70
2009,06,02,08,46,20.70
2009,06,02,08,47,20.70
2009,06,02,08,48,20.80
2009,06,02,08,49,20.80
2009,06,02,08,50,20.80
2009,06,02,08,51,20.80
2009,06,02,08,52,20.90
2009,06,02,08,53,20.90
2009,06,02,08,54,21.00
2009,06,02,08,55,21.00
2009,06,02,08,56,21.00
2009,06,02,08,57,21.00
2009,06,02,08,58,20.90
2009,06,02,08,59,20.90
2009,06,02,09,00,20.90
2009,06,02,09,01,20.90
2009,06,02,09,02,21.00
2009,06,02,09,03,21.10
2009,06,02,09,04,21.10
2009,06,02,09,05,21.20
2009,06,02,09,06,21.30
2009,06,02,09,07,21.40
2009,06,02,09,08,21.50
2009,06,02,09,09,21.60
2009,06,02,09,10,21.70
2009,06,02,09,11,21.80
2009,06,02,09,12,22.00
2009,06,02,09,13,22.10
2009,06,02,09,14,22.20
2009,06,02,09,15,22.40
2009,06,02,09,16,22.50
2009,06,02,09,17,22.60
2009,06,02,09,18,22.70
2009,06,02,09,19,22.80
2009,06,02,09,20,22.80
2009,06,02,09,21,22.90
2009,06,02,09,22,23.00
2009,06,02,09,23,23.00
2009,06,02,09,24,23.10
2009,06,02,09,25,23.20
2009,06,02,09,26,23.20
2009,06,02,09,27,23.30
2009,06,02,09,28,23.30
2009,06,02,09,29,23.40
2009,06,02,09,30,23.40
2009,06,02,09,31,23.40
2009,06,02,09,32,23.40
2009,06,02,09,33,23.40
2009,06,02,09,34,23.30
2009,06,02,09,35,23.40
2009,06,02,09,36,23.40
2009,06,02,09,37,23.30
2009,06,02,09,38,23.30
2009,06,02,09,39,23.40
2009,06,02,09,40,23.40
2009,06,02,09,41,23.50
2009,06,02,09,42,23.60
2009,06,02,09,43,23.70
2009,06,02,09,44,23.80
2009,06,02,09,45,23.80
2009,06,02,09,46,23.90
2009,06,02,09,47,23.90
2009,06,02,09,48,23.90
2009,06,02,09,49,24.00
2009,06,02,09,50,24.00
2009,06,02,09,51,24.00
2009,06,02,09,52,24.00
2009,06,02,09,53,24.00
2009,06,02,09,54,24.00
2009,06,02,09,55,24.10
2009,06,02,09,56,24.10
2009,06,02,09,57,24.20
2009,06,02,09,58,24.20
2009,06,02,09,59,24.30
2009,06,02,10,00,24.40
2009,06,02,10,01,24.50
2009,06,02,10,02,24.50
2009,06,02,10,03,24.50
2009,06,02,10,04,24.60
2009,06,02,10,05,24.60
2009,06,02,10,06,24.70
2009,06,02,10,07,24.70
2009,06,02,10,08,24.80
2009,06,02,10,09,24.70
2009,06,02,10,10,24.70
2009,06,02,10,11,24.70
2009,06,02,10,12,24.60
2009,06,02,10,13,24.60
2009,06,02,10,14,24.60
2009,06,02,10,15,24.60
2009,06,02,10,16,24.60
2009,06,02,10,17,24.60
2009,06,02,10,18,24.60
2009,06,02,10,19,24.60
2009,06,02,10,20,24.60
2009,06,02,10,21,24.60
2009,06,02,10,22,24.50
2009,06,02,10,23,24.50
2009,06,02,10,24,24.50
2009,06,02,10,25,24.50
2009,06,02,10,26,24.60
2009,06,02,10,27,24.70
2009,06,02,10,28,24.70
2009,06,02,10,29,24.80
2009,06,02,10,30,24.90
2009,06,02,10,31,25.00
2009,06,02,10,32,25.10
2009,06,02,10,33,25.10
2009,06,02,10,34,25.00
2009,06,02,10,35,24.90
2009,06,02,10,36,24.90
2009,06,02,10,37,24.80
2009,06,02,10,38,24.80
2009,06,02,10,39,24.80
2009,06,02,10,40,24.90
2009,06,02,10,41,25.00
2009,06,02,10,42,25.10
2009,06,02,10,43,25.20
2009,06,02,10,44,25.20
2009,06,02,10,45,25.20
2009,06,02,10,46,25.20
2009,06,02,10,47,25.30
2009,06,02,10,48,25.30
2009,06,02,10,49,25.30
2009,06,02,10,50,25.20
2009,06,02,10,51,25.20
2009,06,02,10,52,25.20
2009,06,02,10,53,25.30
2009,06,02,10,54,25.40
2009,06,02,10,55,25.60
2009,06,02,10,56,25.80
2009,06,02,10,57,25.90
2009,06,02,10,58,26.10
2009,06,02,10,59,26.20
2009,06,02,11,00,26.20
2009,06,02,11,01,26.10
2009,06,02,11,02,26.00
2009,06,02,11,03,25.90
2009,06,02,11,04,25.90
2009,06,02,11,05,25.90
2009,06,02,11,06,25.90
2009,06,02,11,07,25.90
2009,06,02,11,08,25.90
2009,06,02,11,09,25.90
2009,06,02,11,10,25.90
2009,06,02,11,11,25.80
2009,06,02,11,12,25.90
2009,06,02,11,13,25.90
2009,06,02,11,14,25.90
2009,06,02,11,15,25.90
2009,06,02,11,16,25.90
2009,06,02,11,17,25.80
2009,06,02,11,18,25.70
2009,06,02,11,19,25.70
2009,06,02,11,20,25.70
2009,06,02,11,21,25.80
2009,06,02,11,22,25.80
2009,06,02,11,23,25.80
2009,06,02,11,24,25.90
2009,06,02,11,25,25.90
2009,06,02,11,26,26.00
2009,06,02,11,27,26.10
2009,06,02,11,28,26.20
2009,06,02,11,29,26.30
2009,06,02,11,30,26.40
2009,06,02,11,31,26.40
2009,06,02,11,32,26.40
2009,06,02,11,33,26.40
2009,06,02,11,34,26.40
2009,06,02,11,35,26.50
2009,06,02,11,36,26.40
2009,06,02,11,37,26.40
2009,06,02,11,38,26.30
2009,06,02,11,39,26.30
2009,06,02,11,40,26.30
2009,06,02,11,41,26.40
2009,06,02,11,42,26.40
2009,06,02,11,43,26.40
2009,06,02,11,44,26.30
2009,06,02,11,45,26.30
2009,06,02,11,46,26.30
2009,06,02,11,47,26.30
2009,06,02,11,48,26.30
2009,06,02,11,49,26.30
2009,06,02,11,50,26.20
2009,06,02,11,51,26.20
2009,06,02,11,52,26.30
2009,06,02,11,53,26.30
2009,06,02,11,54,26.30
2009,06,02,11,55,26.40
2009,06,02,11,56,26.40
2009,06,02,11,57,26.40
2009,06,02,11,58,26.30
2009,06,02,11,59,26.30
2009,06,02,12,00,26.40
2009,06,02,12,01,26.40
2009,06,02,12,02,26.40
2009,06,02,12,03,26.50
2009,06,02,12,04,26.50
2009,06,02,12,05,26.50
2009,06,02,12,06,26.40
2009,06,02,12,07,26.40
2009,06,02,12,08,26.40
2009,06,02,12,09,26.40
2009,06,02,12,10,26.40
2009,06,02,12,11,26.30
2009,06,02,12,12,26.30
2009,06,02,12,13,26.40
2009,06,02,12,14,26.40
2009,06,02,12,15,26.40
2009,06,02,12,16,26.50
2009,06,02,12,17,26.60
2009,06,02,12,18,26.60
2009,06,02,12,19,26.60
2009,06,02,12,20,26.70
2009,06,02,12,21,26.80
2009,06,02,12,22,26.80
2009,06,02,12,23,26.80
2009,06,02,12,24,26.70
2009,06,02,12,25,26.70
2009,06,02,12,26,26.80
2009,06,02,12,27,26.80
2009,06,02,12,28,26.80
2009,06,02,12,29,26.90
2009,06,02,12,30,26.90
2009,06,02,12,31,26.90
2009,06,02,12,32,27.00
2009,06,02,12,33,27.10
2009,06,02,12,34,27.20
2009,06,02,12,35,27.30
2009,06,02,12,36,27.20
2009,06,02,12,37,27.00
2009,06,02,12,38,27.00
2009,06,02,12,39,26.90
2009,06,02,12,40,26.80
2009,06,02,12,41,26.70
2009,06,02,12,42,26.70
2009,06,02,12,43,26.70
2009,06,02,12,44,26.60
2009,06,02,12,45,26.60
2009,06,02,12,46,26.60
2009,06,02,12,47,26.60
2009,06,02,12,48,26.70
2009,06,02,12,49,26.70
2009,06,02,12,50,26.70
2009,06,02,12,51,26.70
2009,06,02,12,52,26.80
2009,06,02,12,53,26.90
2009,06,02,12,54,27.00
2009,06,02,12,55,27.10
2009,06,02,12,56,27.10
2009,06,02,12,57,27.20
2009,06,02,12,58,27.20
2009,06,02,12,59,27.30
2009,06,02,13,00,27.30
2009,06,02,13,01,27.40
2009,06,02,13,02,27.40
2009,06,02,13,03,27.50
2009,06,02,13,04,27.50
2009,06,02,13,05,27.50
2009,06,02,13,06,27.50
2009,06,02,13,07,27.50
2009,06,02,13,08,27.50
2009,06,02,13,09,27.50
2009,06,02,13,10,27.50
2009,06,02,13,11,27.40
2009,06,02,13,12,27.40
2009,06,02,13,13,27.50
2009,06,02,13,14,27.60
2009,06,02,13,15,27.70
2009,06,02,13,16,27.80
2009,06,02,13,17,27.80
2009,06,02,13,18,27.90
2009,06,02,13,19,28.00
2009,06,02,13,20,28.10
2009,06,02,13,21,28.10
2009,06,02,13,22,28.00
2009,06,02,13,23,28.00
2009,06,02,13,24,28.00
2009,06,02,13,25,28.00
2009,06,02,13,26,28.00
2009,06,02,13,27,27.90
2009,06,02,13,28,27.90
2009,06,02,13,29,28.00
2009,06,02,13,30,28.10
2009,06,02,13,31,28.20
2009,06,02,13,32,28.40
2009,06,02,13,33,28.50
2009,06,02,13,34,28.60
2009,06,02,13,35,28.70
2009,06,02,13,36,28.70
2009,06,02,13,37,28.80
2009,06,02,13,38,28.70
2009,06,02,13,39,28.50
2009,06,02,13,40,28.20
2009,06,02,13,41,28.00
2009,06,02,13,42,27.90
2009,06,02,13,43,27.80
2009,06,02,13,44,27.80
2009,06,02,13,45,27.80
2009,06,02,13,46,27.80
2009,06,02,13,47,27.90
2009,06,02,13,48,28.10
2009,06,02,13,49,28.30
2009,06,02,13,50,28.40
2009,06,02,13,51,28.40
2009,06,02,13,52,28.40
2009,06,02,13,53,28.50
2009,06,02,13,54,28.60
2009,06,02,13,55,28.70
2009,06,02,13,56,28.80
2009,06,02,13,57,28.90
2009,06,02,13,58,29.00
2009,06,02,13,59,28.90
2009,06,02,14,00,28.90
2009,06,02,14,01,28.90
2009,06,02,14,02,28.80
2009,06,02,14,03,28.80
2009,06,02,14,04,28.90
2009,06,02,14,05,29.00
2009,06,02,14,06,29.10
2009,06,02,14,07,29.20
2009,06,02,14,08,29.30
2009,06,02,14,09,29.40
2009,06,02,14,10,29.50
2009,06,02,14,11,29.50
2009,06,02,14,12,29.60
2009,06,02,14,13,29.60
2009,06,02,14,14,29.60
2009,06,02,14,15,29.70
2009,06,02,14,16,29.80
2009,06,02,14,17,29.80
2009,06,02,14,18,29.90
2009,06,02,14,19,30.10
2009,06,02,14,20,30.20
2009,06,02,14,21,30.20
2009,06,02,14,22,30.30
2009,06,02,14,23,30.30
2009,06,02,14,24,30.30
2009,06,02,14,25,30.30
2009,06,02,14,26,30.20
2009,06,02,14,27,30.30
2009,06,02,14,28,30.30
2009,06,02,14,29,30.20
2009,06,02,14,30,30.20
2009,06,02,14,31,30.10
2009,06,02,14,32,30.00
2009,06,02,14,33,29.90
2009,06,02,14,34,29.60
2009,06,02,14,35,29.40
2009,06,02,14,36,29.20
2009,06,02,14,37,29.00
2009,06,02,14,38,28.90
2009,06,02,14,39,28.80
2009,06,02,14,40,28.80
2009,06,02,14,41,28.90
2009,06,02,14,42,28.80
2009,06,02,14,43,28.70
2009,06,02,14,44,28.60
2009,06,02,14,45,28.50
2009,06,02,14,46,28.40
2009,06,02,14,47,28.30
2009,06,02,14,48,28.20
2009,06,02,14,49,28.20
2009,06,02,14,50,28.20
2009,06,02,14,51,28.10
2009,06,02,14,52,28.10
2009,06,02,14,53,28.00
2009,06,02,14,54,27.90
2009,06,02,14,55,27.90
2009,06,02,14,56,27.90
2009,06,02,14,57,27.90
2009,06,02,14,58,27.90
2009,06,02,14,59,27.90
2009,06,02,15,00,27.90
2009,06,02,15,01,27.90
2009,06,02,15,02,28.00
2009,06,02,15,03,28.10
2009,06,02,15,04,28.30
2009,06,02,15,05,28.50
2009,06,02,15,06,28.60
2009,06,02,15,07,28.50
2009,06,02,15,08,28.50
2009,06,02,15,09,28.50
2009,06,02,15,10,28.70
2009,06,02,15,11,28.80
2009,06,02,15,12,28.90
2009,06,02,15,13,28.70
2009,06,02,15,14,28.60
2009,06,02,15,15,28.50
2009,06,02,15,16,28.40
2009,06,02,15,17,28.30
2009,06,02,15,18,28.30
2009,06,02,15,19,28.40
2009,06,02,15,20,28.40
2009,06,02,15,21,28.40
2009,06,02,15,22,28.50
2009,06,02,15,23,28.50
2009,06,02,15,24,28.40
2009,06,02,15,25,28.50
2009,06,02,15,26,28.50
2009,06,02,15,27,28.60
2009,06,02,15,28,28.60
2009,06,02,15,29,28.60
2009,06,02,15,30,28.50
2009,06,02,15,31,28.30
2009,06,02,15,32,28.20
2009,06,02,15,33,28.10
2009,06,02,15,34,28.10
2009,06,02,15,35,28.10
2009,06,02,15,36,28.20
2009,06,02,15,37,28.20
2009,06,02,15,38,28.30
2009,06,02,15,39,28.30
2009,06,02,15,40,28.40
2009,06,02,15,41,28.40
2009,06,02,15,42,28.40
2009,06,02,15,43,28.40
2009,06,02,15,44,28.40
2009,06,02,15,45,28.40
2009,06,02,15,46,28.40
2009,06,02,15,47,28.50
2009,06,02,15,48,28.50
2009,06,02,15,49,28.50
2009,06,02,15,50,28.40
2009,06,02,15,51,28.40
2009,06,02,15,52,28.30
2009,06,02,15,53,28.30
2009,06,02,15,54,28.30
2009,06,02,15,55,28.20
2009,06,02,15,56,28.20
2009,06,02,15,57,28.20
2009,06,02,15,58,28.20
2009,06,02,15,59,28.30
2009,06,02,16,00,28.30
2009,06,02,16,01,28.20
2009,06,02,16,02,28.20
2009,06,02,16,03,28.20
2009,06,02,16,04,28.20
2009,06,02,16,05,28.20
2009,06,02,16,06,28.20
2009,06,02,16,07,28.30
2009,06,02,16,08,28.30
2009,06,02,16,09,28.40
2009,06,02,16,10,28.40
2009,06,02,16,11,28.40
2009,06,02,16,12,28.40
2009,06,02,16,13,28.50
2009,06,02,16,14,28.50
2009,06,02,16,15,28.60
2009,06,02,16,16,28.60
2009,06,02,16,17,28.50
2009,06,02,16,18,28.40
2009,06,02,16,19,28.40
2009,06,02,16,20,28.40
2009,06,02,16,21,28.40
2009,06,02,16,22,28.40
2009,06,02,16,23,28.50
2009,06,02,16,24,28.50
2009,06,02,16,25,28.50
2009,06,02,16,26,28.60
2009,06,02,16,27,28.60
2009,06,02,16,28,28.60
2009,06,02,16,29,28.60
2009,06,02,16,30,28.70
2009,06,02,16,31,28.80
2009,06,02,16,32,28.90
2009,06,02,16,33,28.90
2009,06,02,16,34,29.00
2009,06,02,16,35,29.00
2009,06,02,16,36,29.00
2009,06,02,16,37,29.00
2009,06,02,16,38,28.90
2009,06,02,16,39,28.80
2009,06,02,16,40,28.70
2009,06,02,16,41,28.50
2009,06,02,16,42,28.50
2009,06,02,16,43,28.40
2009,06,02,16,44,28.50
2009,06,02,16,45,28.50
2009,06,02,16,46,28.60
2009,06,02,16,47,28.70
2009,06,02,16,48,28.70
2009,06,02,16,49,28.70
2009,06,02,16,50,28.80
2009,06,02,16,51,29.00
2009,06,02,16,52,29.10
2009,06,02,16,53,29.10
2009,06,02,16,54,29.00
2009,06,02,16,55,28.90
2009,06,02,16,56,28.90
2009,06,02,16,57,28.90
2009,06,02,16,58,28.80
2009,06,02,16,59,28.70
2009,06,02,17,00,28.70
2009,06,02,17,01,28.70
2009,06,02,17,02,28.70
2009,06,02,17,03,28.60
2009,06,02,17,04,28.60
2009,06,02,17,05,28.50
2009,06,02,17,06,28.50
2009,06,02,17,07,28.60
2009,06,02,17,08,28.70
2009,06,02,17,09,28.70
2009,06,02,17,10,28.60
2009,06,02,17,11,28.60
2009,06,02,17,12,28.60
2009,06,02,17,13,28.60
2009,06,02,17,14,28.60
2009,06,02,17,15,28.60
2009,06,02,17,16,28.60
2009,06,02,17,17,28.60
2009,06,02,17,18,28.60
2009,06,02,17,19,28.60
2009,06,02,17,20,28.60
2009,06,02,17,21,28.70
2009,06,02,17,22,28.70
2009,06,02,17,23,28.70